Location: Izdebno
(52.6670°N, 16.2170°E)
Time: 13:05:59
(UTC+02:00)

Vanguard 2 - Pass Details

Date: 05 February 2023
Orbit: 553 x 2927 km, 32.9° (Epoch: 26 March)

Event Time Altitude Azimuth Distance (km) Brightness Sun altitude
Rises 00:18:56 0° 254° (WSW) 6,026 - -53.4°
Reaches altitude 10° 00:23:04 10° 246° (WSW) 5,271 - -53.3°
Maximum altitude 00:37:01 36° 188° (S) 3,990 - -53.0°
Drops below altitude 10° 00:51:43 10° 131° (SE) 5,547 - -52.4°
Exits shadow 00:54:54 - 126° (SE) 6,113 12.0 -52.3°
Sets 00:56:14 0° 124° (SE) 6,364 12.1 -52.2°
